07:23
Airports
History
Links
Donate
Help keep this website running!
PayPal
Bitcoin
This page is community maintained. The information is intended for PC simulator navigation or reference.
Always use approved charts for navigation.
EGTN
EnstoneEdited 07-Mar-2012
Enstone (EGTN)
Enstone, England, United Kingdom
(U)
Lat/Lng:51° 55' 51.97" N / 1° 25' 49.08" W
51.931103 / -1.430299
Elevation:550'ft / 168mMSL
ID / ICAO:EGTN
Runways:1
Longest:26-08
Asphalt 1,094m / 3,591ft
(Edited 2012-03-07) [ Sign in to Edit ]
Nearby Weather06:50 GMT 2018-02-21
Nearby weather at EGTK, Oxford Kidlington located 8.1 nautical miles from EGTN
Altimeter: 30.33
Visibility: 4.3 statute miles
Wind: 4 knots (from 040°)
Temp: 2°c / 36°f
Humidity: 93.1%

METAR: EGTK 210650Z 04004KT 7000 FEW020 02/01 Q1027

(Powered by phpweather)
Nearby VORs <50NM
Nearby NDBs
Runway 26 / 08
Dimensions:1094.4 x 39.9m 3591' x 131'ft
Surface:Asphalt
Runway 26 [A]Runway 08 [B]
Heading:254°TH 074°TH
Lat:
Lng:
51° 55' 56.83"N
1° 25' 21.28"W
51° 55' 47.11"N
1° 26' 16.87"W
User Notes and Comments
51° 55' 51.97" N / 1° 25' 49.08" W
Distance To
Airport ID:
Nearby Airports
(C) Oxford Kidlington 8.1 NM
EGTK ( WX ) SE 144°
(U) Hinton in the Hedges 11.5 NM
XHIN NE 54°
4 Shotteswell 11.8 NM
EG90 N 10°
4 Bicester Airfield 12.8 NM
EGDD E 94°
(C) RAF Brize Norton 14.1 NM
EGVN ( WX ) SSW 207°
(C) Turweston Aerodrome 16.1 NM
EGBT ENE 61°
(U) Finmere 16.3 NM
EG40 ENE 76°
VFR Chart
Flight Planning at SkyVector.com